Regional Weather Roundup
Issued by NWS Wakefield, VA

Home | Current Version | Previous Version | Graphics & Text | Print | Product List | Glossary On
Versions: 1 2 3 4 5 6 7 8 9 10 11 12 13 14 15 16 17 18 19 20 21 22 23 24 25 26 27
000
ASUS41 KAKQ 201715
RWRAKQ

REGIONAL WEATHER ROUNDUP
NATIONAL WEATHER SERVICE WAKEFIELD VA
1200 PM EST FRI JAN 20 2017

Note: "fair" indicates few or no clouds below 12,000 feet with no
significant weather and/or obstructions to visibility. * = Denotes
station may not report precipitation (e.g., rain,snow,etc.),
thunder or fog.

VAZ042-051-052>054-056-201800-
NORTHERN VIRGINIA

CITY           SKY/WX    TMP DP  RH WIND       PRES   REMARKS
WASH NATIONAL  CLOUDY    48  41  76 S5        29.92F
DULLES         LGT RAIN  44  41  89 S6        29.91F
FORT BELVOIR   LGT RAIN  46  40  79 S5        29.92F
QUANTICO       LGT RAIN  45  42  89 W3        29.94F
FREDERICKSBRG* LGT RAIN  45  45 100 SW3       29.93S
STAFFORD*      DRIZZLE   44  44 100 CALM      29.97S
WARRENTON      CLOUDY    46  41  85 S5        29.90F
CULPEPER*      CLOUDY    45  43  94 S6        29.92F
MANASSAS*      LGT RAIN N/A N/A N/A S6        29.92F
LEESBURG*      DRIZZLE   45  45 100 MISG      29.91R
WINCHESTER     CLOUDY    43  39  87 SE5       29.86F
FRONT ROYAL*   CLOUDY    43  41  93 CALM      29.85F
LURAY*         CLOUDY    50  46  87 SW8       29.85F
$$

VAZ048-049-060>072-079>083-201800-
CENTRAL AND SOUTH CENTRAL VIRGINIA

CITY           SKY/WX    TMP DP  RH WIND       PRES   REMARKS
RICHMOND       LGT RAIN  46  44  93 SE5       29.93F
CHESTERFIELD*  CLOUDY    46  30  53 SW3       29.95F
PETERSBURG*    LGT RAIN  45  45 100 CALM      29.94F
HANOVER        LGT RAIN  46  43  89 S5        29.94F FOG
TAPPAHANNOCK*  DRIZZLE   48  41  75 SE3       29.92F
QUINTON*       CLOUDY    46  46 100 S3        29.92F
CHARLOTTSVILLE CLOUDY    46  43  89 S5        29.90F
GORDONSVILLE*  CLOUDY    45  44  98 SW6       29.91F
ORANGE*          N/A     45  45 100 CALM      29.93F
LOUISA*        DRIZZLE   48  46  93 CALM      29.91F
BUMPASS*       CLOUDY    44  44 100 SW3       29.92F
FARMVILLE*     LGT SNOW  46  46 100 CALM      29.92F
CREWE*         CLOUDY    46  46 100 CALM      29.92F
FORT PICKETT*  CLOUDY   N/A N/A N/A CALM      29.92F
CHASE CITY*    CLOUDY    46  45  94 CALM      29.91F
CLARKSVILLE*   CLOUDY    45  45 100 CALM      29.90F
SOUTH HILL*    CLOUDY    46  46 100 CALM      29.96F
LAWRENCEVILLE* CLOUDY    46  45  97 SE3       29.91F
EMPORIA*       DRIZZLE   45  45 100 CALM      29.94F
$$

VAZ088>098-201800-
SOUTHEAST VIRGINIA

CITY           SKY/WX    TMP DP  RH WIND       PRES   REMARKS
NORFOLK        LGT RAIN  52  44  74 CALM      29.93F
VIRGINIA BEACH LGT RAIN  51  43  74 S6        29.93F
NORFOLK NAVAL  NOT AVBL
WEST POINT*    CLOUDY    47  43  85 E7        29.93F
SALUDA*        CLOUDY    46  44  92 CALM      29.95F
NEWPORT NEWS   LGT RAIN  51  46  83 CALM      29.94F
LANGLEY AFB    LGT RAIN  50  45  81 CALM      29.94F
FORT EUSTIS    LGT RAIN  49  43  81 SE6       29.91F
WILLIAMSBURG*  CLOUDY    48  45  87 CALM      29.93F
HR EXEC AP*    CLOUDY    52  43  71 W3        29.94R
FRANKLIN*      RAIN      48  46  93 CALM      29.94F
US460-WAKEFLD  RAIN      47  46  97 CALM      29.93F FOG
$$

VAZ020-022-025-037-045-201800-
WEST CENTRAL AND SOUTHWEST VIRGINIA

CITY           SKY/WX    TMP DP  RH WIND       PRES   REMARKS
STAUNTON*      CLOUDY    50  46  85 S5        29.88F
WAYNESBORO*    CLOUDY    49  45  88 CALM      29.88F
HOT SPRINGS VA CLOUDY    46  46 100 SW7       29.83F FOG
LYNCHBURG      LGT RAIN  47  45  93 NE3       29.90F FOG
DANVILLE       LGT RAIN  47  47 100 E3        29.90F FOG
SOUTH BOSTON*  CLOUDY    46  45  95 N3        29.92S
MARTINSVILLE   RAIN      46  45  95 CALM      29.92F
ROANOKE        CLOUDY    47  45  93 S5        29.91F
BLACKSBURG     CLOUDY    47  46  95 E3        29.90F
DUBLIN*        CLOUDY    49  48  97 CALM      29.88F
MARION*        CLOUDY    51  49  93 CALM      29.90F
HILLSVILLE*    CLOUDY    49  49 100 CALM      29.86F
RICHLANDS*     CLOUDY   N/A N/A N/A SW13G20   29.86F
WISE*          CLOUDY    54  54 100 W8        29.87F
ABINGDON*      DRIZZLE   56  56  99 W5        29.87F
$$

MDZ021>025-VAZ099-100-201800-
SOUTHERN MARYLAND AND THE DELMARVA PENINSULA

CITY           SKY/WX    TMP DP  RH WIND       PRES   REMARKS
PATUXENT RIVER CLOUDY    44  42  93 SE8       29.94F
BAY BRIDGE APT CLOUDY    43  41  93 SE7       29.94F FOG
LEONARDTOWN    CLOUDY    46  39  76 SE7       29.94F
DOVER          DRIZZLE   41  41 100 E3        29.95F
GEORGETOWN     CLOUDY    45  42  89 E5        29.96F FOG
EASTON         PTSUNNY   45  39  81 SE6       29.99F FOG
CAMBRIDGE      CLOUDY    43  39  87 SE3       29.94F
SALISBURY      CLOUDY    45  42  89 E3        29.95F
OCEAN CITY     LGT RAIN  44  43  96 CALM      29.97F FOG
WALLOPS ISLAND CLOUDY    47  44  90 E3        29.96F
ACCOMACK*      CLOUDY    49  45  86 SE3       29.95F
$$

NCZ012>017-030>032-201800-
NORTH CENTRAL AND EASTERN NORTH CAROLINA

CITY           SKY/WX    TMP DP  RH WIND       PRES   REMARKS
ROANOKE RAPIDS DRIZZLE   46  46 100 N5        29.91F
RALEIGH        CLOUDY    52  50  93 E5        29.89F FOG
ELIZABETH CITY CLOUDY    54  43  66 SE10      29.92F
AHOSKIE*         N/A     47  46  97 CALM      29.91F FOG
EDENTON*       DRIZZLE   55  46  72 CALM      29.92F
CURRITUCK*     CLOUDY    53  44  74 E3        29.94F
KILL DEVIL HLS NOT AVBL
MANTEO         CLOUDY    53  46  75 SE7       29.92F
CAPE HATTERAS  CLOUDY    66  54  65 E7        29.91F HAZE
TARBORO*       NOT AVBL
GOLDSBORO      MOSUNNY   63  56  79 S7        29.86F
WASHINGTON     CLOUDY    55  48  78 SE6         N/A
GREENVILLE     CLOUDY    54  52  94 SE5       29.91F
NEW BERN       CLOUDY    59  51  75 SE3       29.91F
WILMINGTON     CLOUDY    68  60  75 S5        29.88F
$$

VAZ048-201800-
ELSEWHERE

CITY           SKY/WX    TMP DP  RH WIND       PRES   REMARKS
HARRISBURG PA  LGT RAIN  39  39 100 E8        29.90F FOG
BALTIMORE      CLOUDY    41  41 100 E8        29.93F FOG
ANNAPOLIS      CLOUDY    42  38  85 SE6       29.94F FOG
ANDREWS AFB    CLOUDY    45  39  80 SE6       29.90F
PHILADELPHIA   RAIN      40  35  83 NE5       29.98F
HENDERSON NC   CLOUDY    48  46  95 SE6       29.89F FOG
GREENSBORO     DRIZZLE   49  49 100 E3        29.88F FOG
ROCKY MOUNT    LGT RAIN  51  50  96 CALM      29.90F
$$

VAZ100-201800-
MARINE

STATION/POSITION TIME  TEMP    WIND        PRES    WAVE   SWELL
                       AIR SEA DIR/SP/G            HT/PER HT/PER
                 (UTC) (F)     (DEG/KT/KT) (MB)    (FT/S) (FT/S)
CAPE MAY NJ      1642   42 41   90/  4/  6 1014.8F
LEWES DE         1642   42 42  110/  5/  8 1014.7F
OCEAN-CITY-INLET 1642   44 42   90/  3/  4 1015.1F
WACHAPREAGUE VA  1642   47 46  110/  2/  3 1014.3F
THOMAS POINT MD  1700   40 40  120/  7/  7   N/A
GOOSES REEF MD   1700   41     150/  4/  4 1014.5
COVE POINT MD    1642   41     190/  9/ 10 1014.7F
SOLOMONS ISLAND  1642   42 41  110/  7/  7   N/A
BISHOPS HEAD MD  1642   43 43   90/  3/  5 1014.5F
PINEY POINT MD   1648          140/  9/  9   N/A
POTOMAC MD       1700   42 41  150/  6/  8 1013.3
CAMBRIDGE MD     1642   42 40   80/  4/  6 1013.6F
LEWISETTA VA     1642   47 44  190/  4/  5 1014.0F
RAPPAHANNOCK LGT 1648          150/  5/  6 1014.5F
STINGRAY PT      1650   42     210/  2/  4 1014.7F
YORK RVR RNG VA  1642   44     140/  3/  4 1013.5F
YORKTOWN VA      1642   44 43   50/  4/  5 1013.9F
JAMESTOWN VA     1700   46 46  100/  4/  6   N/A     0
DOMINION TERM VA 1642   48      30/  3/  4 1014.0F
KIPTOPEKE VA     1642      43  150/  5/  6   N/A
CHES BAY BRIDGE  1642   46 43   90/  5/  5 1013.8F
CAPE HENRY VA    1642   47     120/  3/  5   N/A
WILLOUBY STN VA  1642   45      40/  6/  7 1014.6F
S CRANEY ISL VA  1642   50     170/  1/  2 1013.7F
CAPE HENRY BUOY  1642      48                N/A     3/13   2/13
OFFSHORE WE BUOY 1621      49                N/A     4/11   2/11
64NM E OF VA BCH 1650   54 57   80/  4/  6 1013.4F   5/13   5/13
DUCK PIER NC     1642   48 45  100/  9/ 10 1012.8F
44100 DUCK FRF   1635      47                N/A     5/13   5/13
44056 DUCK FRF   1630      45                N/A     4/14   3/14
OREGON INLET NC  1642   50 49   60/  5/  7 1013.4F
HATTERAS NC      1648      54   90/  5/  9 1012.4F
DIAMOND SHLS NC  1650   68 76  170/ 14/ 16 1012.4F   5/12   5/12
CAPE LOOKOUT NC  1600   67     150/  8/  9 1012.8F
$$




USA.gov is the U.S. government's official web portal to all federal, state and local government web resources and services.